EW4785 Weather Reports


Display with metric or nautical units.
time (UTC)temp
F
wind
direction
speed
MPH
gust
MPH
rain 1hr
in
rain 24hr
in
rain mn
in
humidity
%
barometer
mb
20260902091511 72 146 0.0 0.0 0.00 0.00 0.00 96 1017.2
20260902090009 72 146 0.0 0.0 0.00 0.00 0.00 96 1017.3
20260902084508 72 146 0.0 0.0 0.00 0.00 0.00 96 1017.2
20260902083005 73 146 0.0 0.0 0.00 0.00 0.00 96 1017.4
20260902081506 73 146 0.0 0.0 0.00 0.00 0.00 95 1017.4
20260902080003 73 146 0.0 0.0 0.00 0.00 0.00 95 1017.2
20260902074502 73 146 0.0 0.0 0.00 0.00 0.00 96 1017.0
20260902073002 73 146 0.0 0.0 0.00 0.00 0.00 95 1017.0
20260902071559 73 146 0.0 0.0 0.00 0.00 0.00 95 1017.2
20260902070058 73 146 0.0 0.0 0.00 0.00 0.00 95 1017.3
20260902064556 73 146 0.0 0.0 0.00 0.00 0.00 95 1017.4
20260902063054 74 146 0.0 0.0 0.00 0.00 0.00 94 1017.5
20260902060058 74 146 0.0 0.0 0.00 0.00 0.00 94 1017.4
20260902054607 75 146 0.0 0.0 0.00 0.00 0.00 93 1017.4
20260902053100 75 146 0.0 0.0 0.00 0.00 0.00 93 1017.1
20260902051546 75 146 0.0 0.0 0.00 0.00 0.00 93 1017.1
20260902050045 76 146 0.0 0.0 0.00 0.00 0.00 93 1017.0
20260902044541 76 146 0.0 0.0 0.00 0.00 0.00 93 1017.0
20260902043043 76 146 0.0 0.0 0.00 0.00 0.00 92 1016.9
20260902041540 76 146 0.0 0.0 0.00 0.00 0.00 93 1016.8
20260902040036 76 146 0.0 0.0 0.00 0.00 0.00 93 1017.0
20260902034536 76 146 0.0 0.0 0.00 0.00 0.00 93 1017.0
20260902033032 76 146 0.0 0.0 0.00 0.00 0.00 92 1017.0
20260902031532 77 146 0.0 0.0 0.00 0.00 0.00 92 1016.8
20260902030032 76 146 0.0 0.0 0.00 0.00 0.00 93 1016.8
20260902024535 76 146 0.0 0.0 0.00 0.00 0.00 93 1017.0
20260902023030 76 146 0.0 0.0 0.00 0.00 0.00 92 1016.9
20260902021530 77 146 0.0 0.0 0.00 0.00 0.00 92 1016.8
20260902020029 77 146 0.0 0.0 0.00 0.00 0.00 91 1016.6
20260902014528 77 146 0.0 0.0 0.00 0.00 0.00 90 1016.3
20260902013028 78 146 0.0 0.0 0.00 0.00 0.00 89 1016.1
20260902011532 78 146 0.0 0.0 0.00 0.00 0.00 89 1016.1
20260902010027 79 146 0.0 0.0 0.00 0.00 0.00 88 1016.0
20260902004526 80 146 0.0 0.0 0.00 0.00 0.00 86 1015.8
20260902003026 80 146 0.0 0.0 0.00 0.00 0.00 84 1015.8
20260902001529 81 146 0.0 0.0 0.00 0.00 0.00 84 1015.7
20260902000028 83 146 0.0 0.0 0.00 0.00 0.00 83 1015.8
20260901234523 85 146 0.0 0.0 0.00 0.00 0.00 82 1015.9
20260901233023 86 146 0.0 0.0 0.00 0.00 0.00 80 1016.0
20260901231522 88 146 0.0 0.0 0.00 0.00 0.00 77 1016.1
20260901230022 89 146 0.0 0.0 0.00 0.00 0.00 73 1016.2
20260901224521 90 146 0.0 1.0 0.00 0.00 0.00 71 1016.1
20260901223021 90 146 0.0 2.0 0.00 0.00 0.00 65 1016.2
20260901221520 91 146 0.0 1.0 0.00 0.00 0.00 65 1016.2
20260901220021 91 128 0.0 3.0 0.00 0.00 0.00 63 1015.8
20260901214521 92 212 1.0 4.0 0.00 0.00 0.00 62 1016.0
20260901213018 92 212 0.0 3.0 0.00 0.00 0.00 63 1016.2
20260901211517 92 212 1.0 3.0 0.00 0.00 0.00 60 1016.2
20260901210015 93 165 1.0 3.0 0.00 0.00 0.00 58 1016.2
20260901204514 93 198 0.0 3.0 0.00 0.00 0.00 60 1016.4
20260901203023 93 200 0.0 3.0 0.00 0.00 0.00 62 1016.5
20260901201515 92 175 1.0 3.0 0.00 0.00 0.00 59 1016.5
20260901200013 93 119 1.0 4.0 0.00 0.00 0.00 59 1016.6
20260901194511 93 81 0.0 4.0 0.00 0.00 0.00 61 1016.7
20260901193011 93 66 1.0 5.0 0.00 0.00 0.00 58 1016.7
20260901191511 93 193 0.0 6.0 0.00 0.00 0.00 62 1016.9
20260901190106 92 178 0.0 4.0 0.00 0.00 0.00 63 1017.1
20260901184505 92 178 0.0 4.0 0.00 0.00 0.00 62 1017.3
20260901183103 92 178 1.0 3.0 0.00 0.00 0.00 62 1017.4
20260901181606 92 178 0.0 2.0 0.00 0.00 0.00 56 1017.5
20260901180001 92 178 1.0 3.0 0.00 0.00 0.00 67 1017.4
20260901174555 92 68 0.0 2.0 0.00 0.00 0.00 61 1017.5
20260901173101 92 80 0.0 3.0 0.00 0.00 0.00 66 1017.6
20260901171601 91 113 0.0 4.0 0.00 0.00 0.00 65 1017.7
20260901170049 91 169 0.0 2.0 0.00 0.00 0.00 66 1017.8
20260901164650 90 292 1.0 3.0 0.00 0.00 0.00 62 1018.0
20260901163047 90 346 1.0 4.0 0.00 0.00 0.00 63 1018.3
20260901161601 89 250 0.0 3.0 0.00 0.00 0.00 69 1018.4
20260901160042 88 250 1.0 3.0 0.00 0.00 0.00 69 1018.8
20260901154552 88 40 0.0 7.0 0.00 0.00 0.00 70 1019.0
20260901153038 87 36 0.0 2.0 0.00 0.00 0.00 71 1019.1
20260901151536 85 298 0.0 4.0 0.00 0.00 0.00 75 1019.2
20260901150039 86 293 0.0 4.0 0.00 0.00 0.00 72 1019.3
20260901144539 85 188 0.0 1.0 0.00 0.00 0.00 76 1019.2
20260901143023 84 188 0.0 1.0 0.00 0.00 0.00 79 1019.2
20260901141520 82 72 0.0 2.0 0.00 0.00 0.00 80 1019.2
20260901140015 80 304 0.0 3.0 0.00 0.00 0.00 86 1019.2
20260901134511 78 265 0.0 1.0 0.00 0.00 0.00 92 1019.1
20260901133006 75 129 0.0 2.0 0.00 0.00 0.00 96 1019.1
20260901131504 74 129 0.0 1.0 0.00 0.00 0.00 97 1019.2
20260901130103 74 129 0.0 0.0 0.00 0.00 0.00 98 1019.1
20260901124554 73 129 0.0 1.0 0.00 0.00 0.00 98 1019.1
20260901123050 72 129 0.0 0.0 0.00 0.00 0.00 98 1019.0
20260901121549 72 129 0.0 0.0 0.00 0.00 0.00 98 1019.0
20260901120047 71 129 0.0 0.0 0.00 0.00 0.00 98 1019.0
20260901114618 70 129 0.0 0.0 0.00 0.00 0.00 98 1018.8
20260901113049 70 129 0.0 0.0 0.00 0.00 0.00 97 1018.5
20260901111549 70 129 0.0 1.0 0.00 0.00 0.00 97 1018.4
20260901110044 71 129 0.0 0.0 0.00 0.00 0.00 97 1018.0
20260901104543 70 129 0.0 0.0 0.00 0.00 0.00 97 1017.8
20260901103042 71 129 0.0 1.0 0.00 0.00 0.00 97 1017.7
20260901101545 70 129 0.0 2.0 0.00 0.00 0.00 97 1017.8
20260901100042 71 129 0.0 0.0 0.00 0.00 0.00 97 1017.8
20260901094543 71 129 0.0 1.0 0.00 0.00 0.00 97 1017.7
20260901093039 71 129 0.0 0.0 0.00 0.00 0.00 97 1017.8